Location: Unspecified
(54.3476°N, 0.0000°E)
Time: 04:21:43
(UTC+00:00)

CZ-6A DEB - Visible Passes

Search period start: 04 April 2026 00:00
Search period end: 14 April 2026 00:00
Orbit: 785 x 830 km, 89.1° (Epoch: 29 March)

Date Brightness Start Highest point End Pass type
(mag) Time Alt. Az. Time Alt. Az. Time Alt. Az.
4 Apr ? 04:37:32 10° ESE 04:40:42 16° ENE 04:43:53 10° NNE visible
4 Apr ? 20:06:03 10° NW 20:08:38 14° WNW 20:11:15 10° W visible
5 Apr ? 04:14:37 10° E 04:16:24 12° ENE 04:18:13 10° NE visible
5 Apr ? 19:40:41 10° NNW 19:44:19 19° WNW 19:47:58 10° WSW visible
6 Apr ? 19:15:36 10° NNW 19:19:55 26° WNW 19:24:15 10° SW visible
9 Apr ? 04:15:24 10° ESE 04:18:32 16° ENE 04:21:42 10° NNE visible
9 Apr ? 19:43:49 10° NW 19:46:29 14° WNW 19:49:09 10° W visible
10 Apr ? 03:52:29 10° E 03:54:14 12° ENE 03:55:59 10° NE visible
13 Apr ? 04:16:44 10° ESE 04:20:42 22° ENE 04:24:40 10° NNE visible
13 Apr ? 19:48:13 10° WNW 19:48:33 10° WNW 19:48:54 10° WNW visible
